Location: Fort Worth, Tx
(32.7431°N, 97.3695°W)
Time: 13:30:31
(UTC-04:00)

Vanguard 1 Rocket - Pass Details

Date: 03 March 2024
Orbit: 652 x 4220 km, 34.3° (Epoch: 11 April)

Event Time Altitude Azimuth Distance (km) Brightness Sun altitude
Exits shadow 04:47:22 21° 198° (SSW) 6,370 11.3 -39.6°
Maximum altitude 05:04:42 45° 143° (SE) 4,925 11.0 -36.1°
Drops below altitude 10° 05:23:51 10° 79° (ENE) 6,024 12.4 -32.2°
Sets 05:27:57 0° 73° (ENE) 6,642 12.9 -31.4°
